EUS29JP EGPF-EIDW

Flight info

Callsign EUS29JP
Flight time 0h 53m
Altitude 24000
Route NORBO L186 TRN DCT BLACA DCT NELBO P620 NIMAT NIMAT4L
Aircraft A320/M-SDE3FGHIRWY/LB1

Departure

Time 2026-05-01 11:41
Airport Glasgow Airport (EGPF)

Arrival

Time 2026-05-01 12:34
Airport Dublin Airport (EIDW)
Time Latitude Longitude Altitude Speed Heading
2026-05-01 11:39 55.87896 -4.42017 28 ft 0 kts 225°
2026-05-01 11:40 55.87867 -4.42070 28 ft 28 kts 227°
2026-05-01 11:40 55.87535 -4.42688 32 ft 105 kts 226°
2026-05-01 11:41 55.86890 -4.43899 37 ft 161 kts 227°
2026-05-01 11:41 55.86100 -4.45406 654 ft 166 kts 227°
2026-05-01 11:41 55.85298 -4.46868 1445 ft 168 kts 225°
2026-05-01 11:41 55.84419 -4.48429 1967 ft 189 kts 225°
2026-05-01 11:42 55.83434 -4.50169 2424 ft 211 kts 225°
2026-05-01 11:42 55.82338 -4.52107 2925 ft 234 kts 226°
2026-05-01 11:42 55.81130 -4.54249 3604 ft 255 kts 226°
2026-05-01 11:42 55.79865 -4.56485 4582 ft 258 kts 226°
2026-05-01 11:43 55.78576 -4.58760 5530 ft 262 kts 225°
2026-05-01 11:43 55.77277 -4.61046 5970 ft 264 kts 223°
2026-05-01 11:43 55.75986 -4.63311 6237 ft 260 kts 223°
2026-05-01 11:44 55.73376 -4.67882 7236 ft 265 kts 223°
2026-05-01 11:44 55.72061 -4.70181 7737 ft 267 kts 223°
2026-05-01 11:44 55.70714 -4.72488 8241 ft 269 kts 222°
2026-05-01 11:44 55.69283 -4.74553 8730 ft 270 kts 208°
2026-05-01 11:45 55.67484 -4.75659 9243 ft 271 kts 188°
2026-05-01 11:45 55.65615 -4.75839 9742 ft 273 kts 182°
2026-05-01 11:45 55.63710 -4.75957 10279 ft 277 kts 182°
2026-05-01 11:45 55.61721 -4.76083 10701 ft 300 kts 182°
2026-05-01 11:46 55.59588 -4.76220 11395 ft 309 kts 182°
2026-05-01 11:46 55.57430 -4.76369 12256 ft 313 kts 183°
2026-05-01 11:46 55.55241 -4.76536 13147 ft 315 kts 183°
2026-05-01 11:46 55.53048 -4.76708 13958 ft 318 kts 183°
2026-05-01 11:47 55.50834 -4.76883 14742 ft 320 kts 183°
2026-05-01 11:47 55.48587 -4.77055 15491 ft 324 kts 183°
2026-05-01 11:47 55.46330 -4.77227 16220 ft 327 kts 183°
2026-05-01 11:47 55.44051 -4.77403 16927 ft 330 kts 183°
2026-05-01 11:48 55.41740 -4.77583 17648 ft 333 kts 183°
2026-05-01 11:48 55.39421 -4.77763 18326 ft 336 kts 183°
2026-05-01 11:48 55.37069 -4.77943 18998 ft 339 kts 183°
2026-05-01 11:48 55.34701 -4.78127 19631 ft 342 kts 183°
2026-05-01 11:49 55.32325 -4.78488 20239 ft 346 kts 190°
2026-05-01 11:49 55.30765 -4.79164 20633 ft 348 kts 197°
2026-05-01 11:49 55.28534 -4.80844 21218 ft 352 kts 205°
2026-05-01 11:49 55.25614 -4.83420 21979 ft 357 kts 205°
2026-05-01 11:50 55.23379 -4.85388 22513 ft 360 kts 205°
2026-05-01 11:50 55.21130 -4.87362 23052 ft 363 kts 205°
2026-05-01 11:50 55.18869 -4.89339 23566 ft 366 kts 205°
2026-05-01 11:50 55.17350 -4.90669 23903 ft 368 kts 205°
2026-05-01 11:51 55.15060 -4.92678 24098 ft 369 kts 205°
2026-05-01 11:51 55.12808 -4.94657 24133 ft 352 kts 205°
2026-05-01 11:51 55.10664 -4.96538 24136 ft 342 kts 205°
2026-05-01 11:51 55.08536 -4.98396 24137 ft 340 kts 205°
2026-05-01 11:52 55.06424 -5.00232 24138 ft 340 kts 205°
2026-05-01 11:52 55.04303 -5.02069 24137 ft 339 kts 205°
2026-05-01 11:52 55.02192 -5.03900 24138 ft 340 kts 205°
2026-05-01 11:52 55.00084 -5.05733 24137 ft 339 kts 205°
2026-05-01 11:53 54.97964 -5.07574 24137 ft 339 kts 205°
2026-05-01 11:53 54.95855 -5.09398 24138 ft 339 kts 205°
2026-05-01 11:53 54.93732 -5.11230 24136 ft 339 kts 205°
2026-05-01 11:53 54.91622 -5.13049 24133 ft 339 kts 205°
2026-05-01 11:54 54.89511 -5.14868 24134 ft 339 kts 204°
2026-05-01 11:54 54.87297 -5.16274 24133 ft 337 kts 193°
2026-05-01 11:54 54.85032 -5.17117 24132 ft 337 kts 191°
2026-05-01 11:54 54.82742 -5.17956 24130 ft 337 kts 191°
2026-05-01 11:55 54.80440 -5.18805 24129 ft 337 kts 191°
2026-05-01 11:55 54.78146 -5.19650 24129 ft 337 kts 191°
2026-05-01 11:55 54.75856 -5.20491 24129 ft 337 kts 191°
2026-05-01 11:55 54.73566 -5.21330 24132 ft 337 kts 191°
2026-05-01 11:56 54.71262 -5.22174 24134 ft 337 kts 191°
2026-05-01 11:56 54.68970 -5.23015 24136 ft 337 kts 191°
2026-05-01 11:56 54.66674 -5.23857 24138 ft 337 kts 191°
2026-05-01 11:56 54.64382 -5.24696 24140 ft 337 kts 191°
2026-05-01 11:57 54.62079 -5.25538 24142 ft 337 kts 191°
2026-05-01 11:57 54.59791 -5.26376 24142 ft 337 kts 191°
2026-05-01 11:57 54.57490 -5.27212 24142 ft 337 kts 191°
2026-05-01 11:57 54.55207 -5.28040 24142 ft 337 kts 191°
2026-05-01 11:58 54.52906 -5.28878 24143 ft 337 kts 191°
2026-05-01 11:58 54.50646 -5.29701 24142 ft 336 kts 191°
2026-05-01 11:58 54.46288 -5.32599 24139 ft 338 kts 204°
2026-05-01 11:59 54.44181 -5.34392 23848 ft 336 kts 204°
2026-05-01 11:59 54.42095 -5.36158 23394 ft 333 kts 204°
2026-05-01 11:59 54.40033 -5.37901 22959 ft 329 kts 204°
2026-05-01 12:00 54.35951 -5.41333 22101 ft 324 kts 204°
2026-05-01 12:00 54.33943 -5.43016 21700 ft 321 kts 204°
2026-05-01 12:00 54.29969 -5.46353 20887 ft 315 kts 204°
2026-05-01 12:01 54.28014 -5.48000 20472 ft 313 kts 204°
2026-05-01 12:01 54.26059 -5.49645 20071 ft 310 kts 204°
2026-05-01 12:01 54.24136 -5.51258 19687 ft 307 kts 204°
2026-05-01 12:01 54.22222 -5.52858 19298 ft 305 kts 204°
2026-05-01 12:02 54.20320 -5.54446 18919 ft 303 kts 204°
2026-05-01 12:02 54.18426 -5.56026 18534 ft 301 kts 204°
2026-05-01 12:02 54.16574 -5.57570 18151 ft 300 kts 204°
2026-05-01 12:02 54.14703 -5.59128 17744 ft 299 kts 204°
2026-05-01 12:03 54.12825 -5.60689 17346 ft 299 kts 204°
2026-05-01 12:03 54.10960 -5.62242 16939 ft 298 kts 204°
2026-05-01 12:03 54.09103 -5.63787 16563 ft 297 kts 204°
2026-05-01 12:03 54.07242 -5.65334 16166 ft 296 kts 204°
2026-05-01 12:04 54.05398 -5.66867 15807 ft 295 kts 204°
2026-05-01 12:04 54.03549 -5.68400 15429 ft 294 kts 204°
2026-05-01 12:04 54.01717 -5.69917 15064 ft 293 kts 204°
2026-05-01 12:04 53.99887 -5.71431 14683 ft 291 kts 204°
2026-05-01 12:05 53.98070 -5.72931 14310 ft 290 kts 203°
2026-05-01 12:05 53.94201 -5.74394 13564 ft 285 kts 182°
2026-05-01 12:05 53.92220 -5.74524 13193 ft 283 kts 182°
2026-05-01 12:06 53.90279 -5.74658 12824 ft 282 kts 182°
2026-05-01 12:06 53.88298 -5.74799 12447 ft 280 kts 182°
2026-05-01 12:06 53.86360 -5.74938 12072 ft 278 kts 182°
2026-05-01 12:06 53.84426 -5.75075 11685 ft 276 kts 182°
2026-05-01 12:07 53.82535 -5.75209 11317 ft 275 kts 182°
2026-05-01 12:07 53.80629 -5.75344 10930 ft 274 kts 182°
2026-05-01 12:07 53.78724 -5.75476 10553 ft 272 kts 182°
2026-05-01 12:07 53.76840 -5.75608 10169 ft 271 kts 182°
2026-05-01 12:08 53.74976 -5.75742 9865 ft 266 kts 182°
2026-05-01 12:08 53.73117 -5.75874 9418 ft 267 kts 182°
2026-05-01 12:08 53.71268 -5.76005 9019 ft 266 kts 182°
2026-05-01 12:08 53.69415 -5.76137 8606 ft 265 kts 182°
2026-05-01 12:09 53.67595 -5.76267 8349 ft 258 kts 182°
2026-05-01 12:09 53.65839 -5.76391 8230 ft 245 kts 182°
2026-05-01 12:09 53.64183 -5.76333 8126 ft 234 kts 169°
2026-05-01 12:09 53.62684 -5.75370 8127 ft 231 kts 150°
2026-05-01 12:10 53.61491 -5.73543 8128 ft 236 kts 131°
2026-05-01 12:10 53.59534 -5.69080 8128 ft 236 kts 130°
2026-05-01 12:10 53.58556 -5.66860 8128 ft 236 kts 130°
2026-05-01 12:11 53.56349 -5.62856 8128 ft 231 kts 150°
2026-05-01 12:11 53.54979 -5.61454 8129 ft 231 kts 152°
2026-05-01 12:11 53.53597 -5.60045 8129 ft 232 kts 151°
2026-05-01 12:12 53.52240 -5.58660 8127 ft 231 kts 151°
2026-05-01 12:12 53.50870 -5.57261 8128 ft 231 kts 151°
2026-05-01 12:12 53.49481 -5.55885 8131 ft 230 kts 157°
2026-05-01 12:12 53.47941 -5.54902 8141 ft 251 kts 161°
2026-05-01 12:13 53.46276 -5.53854 8137 ft 254 kts 165°
2026-05-01 12:13 53.44586 -5.53585 8131 ft 236 kts 187°
2026-05-01 12:13 53.43061 -5.54404 8130 ft 231 kts 208°
2026-05-01 12:13 53.41840 -5.56175 8130 ft 235 kts 230°
2026-05-01 12:14 53.41129 -5.58665 8130 ft 243 kts 253°
2026-05-01 12:14 53.41087 -5.61516 8130 ft 252 kts 277°
2026-05-01 12:14 53.41611 -5.64357 8132 ft 255 kts 284°
2026-05-01 12:14 53.42184 -5.67171 8132 ft 256 kts 284°
2026-05-01 12:15 53.42765 -5.70002 8132 ft 256 kts 284°
2026-05-01 12:15 53.43344 -5.72817 8131 ft 256 kts 284°
2026-05-01 12:15 53.43920 -5.75649 8134 ft 262 kts 284°
2026-05-01 12:15 53.44531 -5.78684 8137 ft 283 kts 284°
2026-05-01 12:16 53.45166 -5.81843 8138 ft 288 kts 284°
2026-05-01 12:16 53.45810 -5.85030 8139 ft 290 kts 284°
2026-05-01 12:16 53.46464 -5.88240 8139 ft 289 kts 284°
2026-05-01 12:16 53.47115 -5.91429 8139 ft 290 kts 284°
2026-05-01 12:17 53.47764 -5.94633 8139 ft 289 kts 284°
2026-05-01 12:17 53.48410 -5.97824 8138 ft 289 kts 284°
2026-05-01 12:17 53.49057 -6.01037 8140 ft 289 kts 284°
2026-05-01 12:17 53.49697 -6.04236 8138 ft 289 kts 284°
2026-05-01 12:18 53.50339 -6.07449 8137 ft 289 kts 284°
2026-05-01 12:18 53.50978 -6.10645 8137 ft 289 kts 284°
2026-05-01 12:18 53.51615 -6.13841 8137 ft 289 kts 284°
2026-05-01 12:18 53.52256 -6.17052 8136 ft 289 kts 284°
2026-05-01 12:19 53.52895 -6.20246 8136 ft 289 kts 284°
2026-05-01 12:19 53.53536 -6.23459 8136 ft 289 kts 284°
2026-05-01 12:19 53.54170 -6.26658 8136 ft 289 kts 284°
2026-05-01 12:19 53.54803 -6.29856 8136 ft 289 kts 284°
2026-05-01 12:20 53.55446 -6.33088 8134 ft 289 kts 284°
2026-05-01 12:20 53.56286 -6.36171 8129 ft 294 kts 301°
2026-05-01 12:20 53.57723 -6.38645 8129 ft 300 kts 323°
2026-05-01 12:20 53.59546 -6.40391 8131 ft 302 kts 329°
2026-05-01 12:21 53.61400 -6.42072 8130 ft 302 kts 329°
2026-05-01 12:21 53.63216 -6.43723 8130 ft 302 kts 328°
2026-05-01 12:21 53.64911 -6.45870 8128 ft 297 kts 310°
2026-05-01 12:21 53.66086 -6.48627 8129 ft 293 kts 296°
2026-05-01 12:22 53.67100 -6.51581 8128 ft 293 kts 296°
2026-05-01 12:22 53.68123 -6.54550 8130 ft 293 kts 296°
2026-05-01 12:22 53.69135 -6.57527 8129 ft 292 kts 292°
2026-05-01 12:22 53.69746 -6.60747 8117 ft 284 kts 273°
2026-05-01 12:23 53.69803 -6.64040 8111 ft 281 kts 264°
2026-05-01 12:23 53.69770 -6.67347 8112 ft 281 kts 264°
2026-05-01 12:23 53.69737 -6.70636 8128 ft 281 kts 264°
2026-05-01 12:23 53.69691 -6.73927 8127 ft 280 kts 261°
2026-05-01 12:24 53.69227 -6.77070 8126 ft 273 kts 242°
2026-05-01 12:24 53.68287 -6.79804 8127 ft 270 kts 234°
2026-05-01 12:24 53.67282 -6.82502 8130 ft 271 kts 234°
2026-05-01 12:24 53.66284 -6.85186 8136 ft 271 kts 234°
2026-05-01 12:25 53.65286 -6.87867 8136 ft 270 kts 233°
2026-05-01 12:25 53.62459 -6.91741 8137 ft 264 kts 205°
2026-05-01 12:25 53.60813 -6.93150 8138 ft 264 kts 205°
2026-05-01 12:26 53.59176 -6.94543 8137 ft 263 kts 205°
2026-05-01 12:26 53.55718 -6.95454 8124 ft 263 kts 158°
2026-05-01 12:26 53.54265 -6.93535 7626 ft 273 kts 131°
2026-05-01 12:27 53.53206 -6.90864 7145 ft 275 kts 123°
2026-05-01 12:27 53.51452 -6.85188 6327 ft 273 kts 120°
2026-05-01 12:28 53.49717 -6.79585 5612 ft 265 kts 121°
2026-05-01 12:28 53.48867 -6.76970 5283 ft 260 kts 122°
2026-05-01 12:28 53.47147 -6.71810 4846 ft 242 kts 122°
2026-05-01 12:29 53.46344 -6.69417 4730 ft 230 kts 122°
2026-05-01 12:29 53.45787 -6.66919 4577 ft 225 kts 103°
2026-05-01 12:29 53.45501 -6.61764 4137 ft 220 kts 98°
2026-05-01 12:30 53.45242 -6.56716 3586 ft 213 kts 98°
2026-05-01 12:30 53.45115 -6.54285 3292 ft 204 kts 99°
2026-05-01 12:30 53.44994 -6.51960 3026 ft 197 kts 99°
2026-05-01 12:31 53.44875 -6.49710 2780 ft 190 kts 99°
2026-05-01 12:31 53.44761 -6.47546 2519 ft 182 kts 99°
2026-05-01 12:31 53.44655 -6.45517 2304 ft 169 kts 99°
2026-05-01 12:31 53.44555 -6.43640 2070 ft 154 kts 97°
2026-05-01 12:32 53.44465 -6.41934 1876 ft 140 kts 97°
2026-05-01 12:32 53.44297 -6.38818 1519 ft 131 kts 97°
2026-05-01 12:32 53.44216 -6.37315 1352 ft 130 kts 96°
2026-05-01 12:33 53.44135 -6.35815 1182 ft 129 kts 96°
2026-05-01 12:33 53.44054 -6.34311 1014 ft 129 kts 96°
2026-05-01 12:33 53.43973 -6.32817 839 ft 129 kts 96°
2026-05-01 12:33 53.43892 -6.31326 670 ft 129 kts 96°
2026-05-01 12:34 53.43810 -6.29820 497 ft 129 kts 96°
2026-05-01 12:34 53.43729 -6.28323 322 ft 129 kts 96°
2026-05-01 12:34 53.43649 -6.26847 218 ft 118 kts 95°
2026-05-01 12:34 53.43599 -6.25924 211 ft 38 kts 95°
2026-05-01 12:35 53.43504 -6.25764 218 ft 20 kts 156°
2026-05-01 12:35 53.43431 -6.25705 211 ft 6 kts 154°
2026-05-01 12:35 53.43396 -6.25676 211 ft 5 kts 154°
2026-05-01 12:35 53.43355 -6.25648 218 ft 11 kts 159°
2026-05-01 12:36 53.43265 -6.25584 213 ft 15 kts 156°
2026-05-01 12:36 53.43190 -6.25467 215 ft 17 kts 88°
2026-05-01 12:36 53.43222 -6.25370 217 ft 7 kts 26°
2026-05-01 12:36 53.43266 -6.25391 212 ft 6 kts 334°
2026-05-01 12:37 53.43287 -6.25406 216 ft 0 kts 336°